North Bend, OR

2:18 PM PDT on August 20, 2017 (GMT -0700)
North Bend Municipal

Weather History for KOTH - October, 2012

Change the Weather History Date:

Friday, October 12, 2012

  Actual Average Record
Temperature  
Mean Temperature 56 °F 54 °F  
Max Temperature 63 °F 62 °F 85 °F (1939)
Min Temperature 48 °F 46 °F 30 °F (1928)
Degree Days  
Heating Degree Days 9 11  
Month to date heating degree days 132 125  
Since 1 July heating degree days 731 733  
Cooling Degree Days 0 0  
Month to date cooling degree days 0 0  
Year to date cooling degree days 0 2  
Growing Degree Days 5 (Base 50)    
Moisture  
Dew Point 50 °F    
Average Humidity 86    
Maximum Humidity 100    
Minimum Humidity 64    
Precipitation  
Precipitation 0.43 in 0.12 in 1.74 in (1962)
Month to date precipitation 0.43 1.19  
Year to date precipitation 29.23 40.01  
Sea Level Pressure  
Sea Level Pressure 30.01 in    
Wind  
Wind Speed 7 mph (South)    
Max Wind Speed 12 mph    
Max Gust Speed 22 mph    
Visibility 9 miles    
Events      
T = Trace of Precipitation, MM = Missing Value Source: NWS Daily Summary

Daily Weather History Graph

Daily Weather History Graph

Search for Another Location

Airport or City:

Trip Planner

Search our weather history database for the weather conditions in past years. The results will help you decide how hot, cold, wet, or windy it might be!

Date:

Astronomy

Oct. 12, 2012 Rise Set
Actual Time 7:28 AM PDT 6:37 PM PDT
Civil Twilight 6:59 AM PDT 7:06 PM PDT
Nautical Twilight 6:26 AM PDT 7:39 PM PDT
Astronomical Twilight 5:53 AM PDT 8:12 PM PDT
Moon 4:12 AM PDT (10/12) 4:54 PM PDT (10/12)
Length of Visible Light 12h 07m
Length of Day
11h 09m
Waning Crescent, 10% of the Moon is Illuminated
Oct 12
Waning Crescent
Oct 15
New
Oct 21
First Quarter
Oct 29
Full
Nov 6
Last Quarter

Hourly Weather History & Observations

Time (PDT) Temp. Dew Point Humidity Pressure Visibility Wind Dir Wind Speed Gust Speed Precip Events Conditions
12:15 AM 50.0 °F 48.2 °F 94% 29.95 in 10.0 mi SSE 8.1 mph - N/A   Overcast
12:35 AM 50.0 °F 48.2 °F 94% 29.95 in 10.0 mi SSE 8.1 mph - N/A   Overcast
12:55 AM 50.0 °F 50.0 °F 100% 29.94 in 10.0 mi SE 10.4 mph - N/A   Overcast
1:15 AM 50.0 °F 48.2 °F 94% 29.94 in 10.0 mi SSE 8.1 mph - N/A   Overcast
1:35 AM 50.0 °F 48.2 °F 94% 29.94 in 10.0 mi SSE 8.1 mph - N/A   Overcast
1:55 AM 51.8 °F 48.2 °F 88% 29.95 in 10.0 mi SSE 5.8 mph - N/A   Overcast
2:15 AM 50.0 °F 48.2 °F 94% 29.95 in 10.0 mi SSE 6.9 mph - N/A   Overcast
2:35 AM 51.8 °F 48.2 °F 88% 29.95 in 10.0 mi SSE 8.1 mph - N/A   Overcast
2:55 AM 50.0 °F 48.2 °F 94% 29.95 in 10.0 mi SSE 8.1 mph - N/A   Overcast
3:15 AM 50.0 °F 48.2 °F 94% 29.95 in 10.0 mi SSE 4.6 mph - N/A   Overcast
3:55 AM 48.2 °F 48.2 °F 100% 29.95 in 10.0 mi South 4.6 mph - N/A   Overcast
4:15 AM 48.2 °F 48.2 °F 100% 29.96 in 10.0 mi South 4.6 mph - N/A   Overcast
4:35 AM 48.2 °F 48.2 °F 100% 29.96 in 10.0 mi SSE 4.6 mph - N/A   Overcast
4:55 AM 50.0 °F 48.2 °F 94% 29.95 in 10.0 mi SSE 4.6 mph - N/A   Overcast
5:15 AM 51.8 °F 48.2 °F 88% 29.96 in 10.0 mi SSE 3.5 mph - N/A   Overcast
5:35 AM 51.8 °F 48.2 °F 88% 29.96 in 10.0 mi South 4.6 mph - N/A   Overcast
5:55 AM 51.8 °F 48.2 °F 88% 29.97 in 10.0 mi SSE 4.6 mph - N/A   Overcast
6:15 AM 51.8 °F 48.2 °F 88% 29.96 in 10.0 mi SSE 5.8 mph - N/A   Overcast
6:35 AM 50.0 °F 48.2 °F 94% 29.96 in 10.0 mi SSE 6.9 mph - N/A   Overcast
6:55 AM 51.8 °F 48.2 °F 88% 29.97 in 10.0 mi South 5.8 mph - N/A   Overcast
7:15 AM 51.8 °F 48.2 °F 88% 29.98 in 10.0 mi SSE 5.8 mph - N/A   Overcast
7:35 AM 51.8 °F 48.2 °F 88% 29.98 in 10.0 mi SSE 5.8 mph - N/A   Overcast
7:55 AM 51.8 °F 48.2 °F 88% 29.99 in 10.0 mi South 5.8 mph - N/A   Overcast
8:15 AM 51.8 °F 48.2 °F 88% 29.99 in 10.0 mi South 8.1 mph - N/A   Scattered Clouds
8:35 AM 53.6 °F 48.2 °F 82% 29.99 in 10.0 mi South 9.2 mph - N/A   Mostly Cloudy
9:15 AM 53.6 °F 48.2 °F 82% 30.00 in 10.0 mi SSE 9.2 mph 16.1 mph N/A   Overcast
9:35 AM 53.6 °F 50.0 °F 88% 30.01 in 10.0 mi South 6.9 mph - N/A   Overcast
9:55 AM 53.6 °F 50.0 °F 88% 30.01 in 10.0 mi South 6.9 mph - N/A   Overcast
10:15 AM 55.4 °F 50.0 °F 82% 30.02 in 10.0 mi South 6.9 mph - N/A   Mostly Cloudy
10:35 AM 55.4 °F 50.0 °F 82% 30.02 in 10.0 mi South 9.2 mph - N/A   Mostly Cloudy
10:55 AM 55.4 °F 48.2 °F 77% 30.02 in 10.0 mi South 8.1 mph - N/A   Overcast
11:35 AM 55.4 °F 48.2 °F 77% 30.03 in 10.0 mi South 6.9 mph - N/A   Overcast
11:55 AM 57.2 °F 48.2 °F 72% 30.04 in 10.0 mi South 8.1 mph - N/A   Overcast
12:15 PM 57.2 °F 48.2 °F 72% 30.04 in 10.0 mi South 12.7 mph 19.6 mph N/A   Overcast
12:35 PM 57.2 °F 48.2 °F 72% 30.04 in 10.0 mi South 11.5 mph 17.3 mph N/A   Overcast
12:55 PM 57.2 °F 48.2 °F 72% 30.03 in 10.0 mi SSW 11.5 mph 21.9 mph N/A   Overcast
1:15 PM 59.0 °F 48.2 °F 67% 30.03 in 10.0 mi South 9.2 mph - N/A   Overcast
1:35 PM 60.8 °F 48.2 °F 63% 30.03 in 10.0 mi SSW 10.4 mph 16.1 mph N/A   Overcast
1:55 PM 60.8 °F 48.2 °F 63% 30.03 in 10.0 mi SSW 11.5 mph 16.1 mph N/A   Mostly Cloudy
2:15 PM 60.8 °F 48.2 °F 63% 30.03 in 10.0 mi South 11.5 mph - N/A   Mostly Cloudy
2:35 PM 62.6 °F 48.2 °F 59% 30.02 in 10.0 mi South 12.7 mph 18.4 mph N/A   Overcast
2:55 PM 60.8 °F 48.2 °F 63% 30.02 in 10.0 mi South 5.8 mph - N/A   Overcast
3:15 PM 60.8 °F 48.2 °F 63% 30.02 in 10.0 mi South 5.8 mph - N/A   Overcast
3:55 PM 60.8 °F 48.2 °F 63% 30.03 in 10.0 mi South 8.1 mph - N/A   Overcast
4:15 PM 60.8 °F 50.0 °F 68% 30.03 in 10.0 mi SSW 6.9 mph - N/A   Overcast
4:35 PM 60.8 °F 50.0 °F 68% 30.03 in 10.0 mi South 6.9 mph - N/A   Overcast
4:55 PM 60.8 °F 50.0 °F 68% 30.02 in 10.0 mi South 9.2 mph - N/A   Overcast
5:15 PM 60.8 °F 51.8 °F 72% 30.02 in 7.0 mi South 4.6 mph - N/A   Overcast
5:35 PM 57.2 °F 53.6 °F 88% 30.03 in 6.0 mi South 6.9 mph - N/A   Overcast
5:55 PM 57.2 °F 55.4 °F 94% 30.03 in 10.0 mi Calm Calm - N/A   Overcast
6:15 PM 57.2 °F 55.4 °F 94% 30.03 in 4.0 mi South 3.5 mph - 0.01 in   Overcast
6:35 PM 55.4 °F 53.6 °F 94% 30.03 in 3.0 mi Calm Calm - 0.04 in   Overcast
7:15 PM 55.4 °F 55.4 °F 100% 30.04 in 3.0 mi SE 4.6 mph - 0.07 in   Overcast
7:35 PM 55.4 °F 55.4 °F 100% 30.04 in 5.0 mi SE 4.6 mph - 0.12 in   Overcast
7:55 PM 55.4 °F 55.4 °F 100% 30.05 in 5.0 mi Calm Calm - 0.17 in   Overcast
8:15 PM 55.4 °F 55.4 °F 100% 30.05 in 4.0 mi Calm Calm - 0.04 in   Overcast
8:35 PM 55.4 °F 55.4 °F 100% 30.06 in 6.0 mi SSW 3.5 mph - 0.06 in   Overcast
8:55 PM 55.4 °F 53.6 °F 94% 30.07 in 10.0 mi SSW 6.9 mph - 0.06 in   Overcast
9:15 PM 55.4 °F 55.4 °F 100% 30.09 in 4.0 mi WSW 8.1 mph - 0.05 in   Overcast
9:35 PM 55.4 °F 55.4 °F 100% 30.09 in 5.0 mi SSW 9.2 mph - 0.11 in   Overcast
9:55 PM 55.4 °F 55.4 °F 100% 30.10 in 10.0 mi SSW 10.4 mph - 0.12 in   Overcast
10:15 PM 55.4 °F 55.4 °F 100% 30.11 in 10.0 mi SSW 6.9 mph - N/A   Overcast
10:55 PM 57.2 °F 55.4 °F 94% 30.12 in 10.0 mi SSW 10.4 mph 18.4 mph N/A   Overcast
11:35 PM 57.2 °F 55.4 °F 94% 30.13 in 10.0 mi South 10.4 mph 18.4 mph N/A   Overcast
11:55 PM 57.2 °F 55.4 °F 94% 30.13 in 10.0 mi South 11.5 mph 21.9 mph N/A   Overcast